Location: Clanezzo
(45.7500°N, 9.6000°E)
Time: 16:38:12
(UTC+00:00)

STARS - Pass Details

Date: 10 July 2022
Orbit: 620 x 637 km, 98.2° (Epoch: 18 August)

Event Time Altitude Azimuth Distance (km) Brightness Sun altitude
Rises 22:23:37 0° 10° (N) 2,924 ? -20.6°
Reaches altitude 10° 22:25:50 10° 8° (N) 2,010 ? -20.7°
Maximum altitude 22:30:09 67° 287° (WNW) 680 ? -20.9°
Enters shadow 22:31:31 42° 220° (SW) 898 ? -20.9°
